Location: Gölova
(36.7992°N, 30.0389°E)
Time: 09:15:01
(UTC+00:00)

Daily predictions for brighter satellites

Satellite Brightness Start Highest point End
(mag) Time Altitude Azimuth Time Altitude Azimuth Time Altitude Azimuth
Timation 2 Rocket 4.3 15:06:16 10° SSW 15:13:02 70° ESE 15:19:53 10° NNE
Cosmos 1441 Rocket 3.8 15:12:30 10° NNW 15:15:48 54° W 15:19:05 10° S
MOS 1 Rocket 4.2 15:14:22 10° ESE 15:17:43 23° ENE 15:21:10 10° NNE
Cosmos 2233 Rocket 4.3 15:14:08 10° S 15:20:24 76° W 15:26:45 10° N
Cosmos 2061 Rocket 4.2 15:16:14 10° S 15:22:33 82° W 15:28:51 10° N
SL-12 R/B(2) 4.3 15:16:15 10° SSW 15:23:52 87° WNW 15:33:05 10° NNE
ATLAS 5 CENTAUR R/B 1.9 15:19:26 10° NNW 15:24:07 66° ENE 15:29:55 10° SE
Cosmos 407 Rocket 3.5 15:21:05 10° SSW 15:26:17 87° ESE 15:31:28 10° NNE
SAR-Lupe-3 3.6 15:27:21 10° NNE 15:29:59 83° E 15:32:36 10° SSW
Radarsat 4.5 15:29:06 10° SSE 15:34:15 79° ENE 15:39:26 10° N
SPOT 1/Viking Rocket 4.3 15:30:51 10° SE 15:35:12 29° ENE 15:39:35 10° N
Cosmos 1464 Rocket 4.4 15:30:31 10° SSE 15:36:17 39° E 15:42:01 10° NNE
RESURS DK-1 3.0 15:33:39 10° N 15:37:15 31° ENE 15:40:48 10° SE
BlueWalker 3 3.6 15:36:45 10° SSE 15:39:10 17° SE 15:40:44 14° E
Cosmos 1869 3.1 15:36:23 10° S 15:39:55 79° W 15:43:26 10° N
CZ-2D R/B 2.6 15:37:00 10° SSE 15:40:08 78° ENE 15:43:17 10° N
Cosmos 1602 4.3 15:38:12 10° NNE 15:40:43 23° ENE 15:43:12 10° SE
ISS -1.6 15:38:51 10° WNW 15:41:19 19° NNW 15:43:47 10° NNE
DELTA 2 R/B (1) 4.4 15:37:53 10° SSW 15:42:55 36° SSE 15:46:56 15° E
SJ-12 3.6 15:40:48 10° SSE 15:44:36 83° ENE 15:48:23 10° N
AQUARIUS 4.0 15:41:41 10° SSE 15:46:02 66° ENE 15:50:24 10° N
COSMO-SKYMED 1 3.1 15:45:51 10° NNE 15:49:36 34° E 15:53:20 10° SSE
Cosmos 540 Rocket 3.4 15:48:00 10° N 15:53:04 58° ENE 15:58:04 10° SSE
Cosmos 1400 Rocket 3.1 15:49:45 10° SSE 15:53:17 38° E 15:56:32 12° NNE
Cosmos 1763 Rocket 3.4 15:53:08 10° NNW 15:58:21 79° ENE 16:03:27 10° SSE
Cosmos 1975 Rocket 4.0 15:54:49 10° NNW 15:59:02 50° W 16:03:15 10° SSW
SMAP 4.3 15:56:40 10° S 16:01:06 45° W 16:05:35 10° NNW
Cosmos 2151 Rocket 3.6 15:56:45 10° S 16:01:08 61° E 16:05:34 10° NNE
Cosmos 1812 2.7 15:58:49 10° SSW 16:01:39 55° W 16:04:30 10° N
Cosmos 44 Rocket 4.2 15:58:38 10° SW 16:03:09 45° NW 16:07:51 10° NNE
OAO 2 Rocket 3.4 15:58:38 10° W 16:03:39 72° S 16:06:57 22° ESE
Cosmos 1943 Rocket 3.1 15:59:23 10° SW 16:04:48 48° WNW 16:10:13 10° N
OAO 3 Rocket 3.2 16:01:39 10° W 16:06:18 72° S 16:08:48 26° E
IRAS Rocket 4.4 16:01:30 10° SE 16:06:47 47° ENE 16:12:04 10° N
Cosmos 1072 Rocket 4.4 16:03:14 10° S 16:09:23 82° E 16:15:31 10° N
Cosmos 2058 2.7 16:06:44 10° N 16:10:41 67° E 16:14:38 10° SSE
Okean 1 Rocket 3.2 16:07:02 10° SSE 16:11:16 48° E 16:14:35 16° NNE
Sich 1 Rocket 3.7 16:07:37 10° SSE 16:11:58 51° E 16:16:03 12° NNE
Aureole 3 Rocket 3.6 16:09:05 10° SSW 16:12:01 39° W 16:14:55 10° N
CZ-2D R/B 3.4 16:08:33 10° SSE 16:12:35 61° ENE 16:16:43 10° N
Cosmos 2278 Rocket 3.3 16:07:55 10° SW 16:13:17 43° WNW 16:18:40 10° N
SJ-7 4.3 16:10:10 10° SSE 16:13:40 45° ENE 16:17:12 10° N
PSLV R/B 3.7 16:10:08 10° SE 16:13:57 41° ENE 16:17:45 10° N
Cosmos 2082 Rocket 2.3 16:09:36 10° N 16:15:03 50° ENE 16:20:28 10° SE
SKYMED 2 3.7 16:11:02 10° N 16:15:23 76° WNW 16:19:43 10° SSW
NOAA 6 4.5 16:11:50 10° SE 16:16:31 37° ENE 16:21:12 10° N
Helios 1A Rocket 2.3 16:18:18 21° NNE 16:20:25 86° WNW 16:23:47 10° SSW
Cosmos 2369 Rocket 3.3 16:19:02 10° SSE 16:22:29 24° ESE 16:22:29 24° ESE
Cosmos 2251 Rocket 4.4 16:20:20 10° SW 16:25:25 50° WNW 16:30:35 10° N
SL-19 R/B 4.0 16:23:59 10° SSE 16:29:09 66° ENE 16:34:19 10° N
Cosmos 371 Rocket 3.3 16:26:11 10° SSW 16:30:58 82° WNW 16:34:20 20° NNE
YAOGAN 1 2.3 16:26:53 10° SSE 16:31:07 74° ENE 16:35:22 10° N
Cosmos 304 Rocket 3.8 16:27:32 10° SSW 16:32:15 76° WNW 16:35:37 19° NNE
H-2A R/B 3.4 16:31:14 10° WSW 16:32:57 12° SSW 16:34:11 10° S
SJ 16-02 2.1 16:31:27 10° SSW 16:35:38 50° WNW 16:39:07 14° N
SJ-6E 4.5 16:32:25 10° SSE 16:36:08 81° ENE 16:39:55 10° N
Cosmos 841 Rocket 3.9 16:32:59 10° N 16:37:10 40° NE 16:37:10 40° NE
DMSP B5D1-3 4.5 16:36:50 41° NE 16:38:23 59° E 16:43:24 10° S
Nadezhda 4 Rocket 3.9 16:32:47 10° N 16:39:07 90° ESE 16:45:18 10° S
ATLAS 2AS CENTAUR R/B 4.2 16:34:57 10° N 16:38:09 17° NNE 16:38:09 17° NNE
BREEZE M DEB (TANK) 4.0 16:38:29 10° SW 16:40:01 23° SSW 16:40:01 23° SSW
Resurs 1-3 3.5 16:38:37 10° SSE 16:42:54 86° W 16:47:13 10° NNW
Cosmos 1656 Rocket 3.5 16:39:18 10° SSW 16:44:48 85° ESE 16:47:09 37° NNE
Cosmos 1627 Rocket 4.5 16:41:26 10° N 16:47:25 53° E 16:53:26 10° SSE
COSMOS 2406 3.4 16:42:07 10° N 16:47:01 47° NE 16:47:01 47° NE
USA 215 3.7 16:41:41 10° SSE 16:48:05 60° SW 16:54:33 10° NW
Cosmos 1862 4.1 16:47:55 10° NNW 16:51:24 45° W 16:54:52 10° SSW
Cosmos 468 Rocket 4.3 16:46:22 10° NNW 16:51:29 63° WSW 16:56:31 10° S
Cosmos 2195 Rocket 4.4 16:46:41 10° N 16:53:01 77° E 16:59:20 10° S
Okean 2 Rocket 4.4 16:51:57 10° SSW 16:56:04 38° W 17:00:11 10° N
Cosmos 489 Rocket 4.4 16:54:48 10° NNW 17:01:05 87° WSW 17:07:16 10° SSE
H-II Stage 2 3.5 16:52:23 10° W 17:02:02 34° SSW 17:02:47 32° S
Meteor 2-3 Rocket 3.6 17:01:25 10° N 17:07:07 87° E 17:07:27 80° SSE
USA 281 4.3 17:15:07 29° N 17:15:07 29° N 17:18:28 10° N
BlueWalker 3 4.1 17:12:57 10° WSW 17:14:33 23° W 17:14:33 23° W
Cosmos 968 Rocket 4.0 17:16:25 10° SSW 17:20:39 55° WSW 17:20:39 55° WSW
Cosmos 1634 Rocket 4.0 17:15:47 10° S 17:22:04 81° W 17:22:50 70° NNW
DELTA 2 R/B (1) 4.2 17:23:27 10° WSW 17:27:39 53° WSW 17:27:39 53° WSW
Cosmos 2369 Rocket 4.2 18:02:04 10° SW 18:04:20 23° WSW 18:04:20 23° WSW
